Wind_Speed
21 22 23 23 24 25 27 28 29 30 31 31 32 33 33 34 34 34 35 35 35 35 35 36 37 38 38 39 40 41 41 41 41 42 43 43 43 42 42 43 43 42 40
22 23 24 25 26 28 29 30 31 32 33 34 34 35 35 36 36 36 35 35 35 35 36 36 37 38 38 39 40 41 42 42 42 42 44 44 43 43 43 43 44 43 42
23 24 25 27 28 30 31 32 33 34 35 36 37 37 37 37 37 37 36 36 36 36 36 36 37 38 39 40 41 41 42 43 43 43 44 45 45 44 44 44 44 44 43
24 25 27 29 31 32 33 34 35 37 37 38 39 39 39 38 38 38 37 37 36 36 37 37 38 39 39 40 42 42 43 44 45 45 45 45 46 45 45 44 44 44 44
26 27 29 31 33 34 35 37 38 39 40 40 40 40 40 39 39 38 37 37 37 37 37 37 37 38 39 40 42 43 44 45 45 46 46 46 47 46 45 45 45 45 45
27 29 31 33 35 36 37 39 40 41 41 42 42 41 41 40 39 38 38 37 37 36 36 36 37 37 38 40 42 43 45 46 46 47 48 48 47 48 47 46 45 45 45
29 31 33 35 36 38 39 40 41 42 43 43 42 42 41 40 39 38 37 37 36 36 36 36 37 37 38 40 42 43 45 47 48 49 49 49 49 49 49 48 47 46 45
30 32 34 36 38 39 41 42 43 44 44 43 43 42 40 39 39 38 37 37 36 35 35 36 36 37 38 39 40 42 44 46 48 50 50 50 50 51 50 50 49 48 47
31 33 35 37 39 41 43 44 45 45 44 44 43 41 40 39 38 38 37 36 35 35 35 35 35 36 37 38 40 41 43 44 47 49 51 52 52 52 53 52 51 49 47
33 35 37 39 41 42 44 45 45 45 44 44 42 41 40 39 38 37 36 35 33 33 33 33 33 33 35 37 38 39 41 42 44 47 50 52 53 53 54 54 52 51 49
34 37 39 41 43 44 46 46 46 45 44 43 41 40 39 38 36 35 34 33 31 30 30 29 29 30 31 32 33 35 38 40 43 44 47 50 52 54 54 55 54 52 50
37 39 41 43 45 46 47 47 46 45 44 42 40 39 38 37 36 34 33 31 29 28 27 27 27 27 28 28 29 32 35 37 40 42 44 47 50 52 53 54 54 54 52
39 41 43 45 46 47 48 47 46 44 43 41 40 38 37 36 35 33 31 29 28 27 26 26 26 26 25 25 26 29 32 35 37 39 42 44 47 50 51 53 54 55 53
42 44 45 47 47 48 48 47 46 44 42 40 39 38 37 36 34 32 30 28 26 26 25 24 24 23 23 23 23 25 28 31 35 37 40 43 45 47 49 51 53 55 53
45 46 47 48 49 48 48 47 46 44 42 40 39 38 36 35 33 31 29 27 25 24 23 23 22 21 21 20 20 20 23 27 31 35 38 41 43 46 48 49 51 53 53
47 48 49 50 49 48 48 46 45 43 41 39 38 37 36 34 32 29 28 27 25 23 22 21 20 19 18 17 16 17 20 24 28 32 35 38 41 44 46 47 49 51 53
48 49 50 50 49 49 48 45 43 41 39 38 37 36 35 33 31 29 28 26 23 22 20 19 19 18 17 15 14 14 16 21 25 29 33 36 39 41 44 45 47 49 51
49 50 50 49 50 49 47 44 41 39 38 37 36 35 34 31 30 29 27 24 21 20 19 18 18 17 16 14 12 12 14 17 22 27 30 33 36 39 41 43 44 47 49
50 49 49 50 50 48 45 42 40 38 36 35 34 34 32 30 28 28 26 23 20 19 18 17 16 15 14 12 10 9 11 15 19 24 27 31 33 36 39 41 42 44 46
51 50 49 49 48 46 44 41 38 36 34 33 32 31 30 28 27 26 24 22 20 18 17 16 15 13 11 10 8 8 10 13 17 21 24 28 31 34 36 38 40 42 43
50 49 48 47 45 44 42 39 36 34 32 31 30 30 28 27 25 24 22 21 19 17 15 14 13 11 9 8 7 7 9 12 15 19 22 25 29 31 34 36 39 41 42
50 49 47 45 44 42 39 37 34 32 30 29 28 27 26 25 23 22 21 20 18 16 14 12 11 10 9 7 7 7 10 12 15 18 21 24 27 30 32 33 36 39 40
49 47 45 44 42 39 37 34 32 29 28 27 26 24 24 23 21 20 20 19 17 16 13 11 10 9 8 7 7 8 10 12 15 18 20 23 26 29 31 33 34 36 39
48 46 44 42 39 36 33 31 29 26 25 25 24 23 22 21 20 19 18 16 15 15 13 11 9 8 8 7 7 8 9 11 14 18 19 22 24 27 30 32 33 35 37
47 44 42 39 36 33 30 27 26 24 23 23 22 21 20 19 18 17 16 15 14 13 12 10 8 8 7 8 8 9 10 11 14 16 19 21 23 26 30 32 33 34 36
44 42 39 35 32 29 27 25 23 22 21 20 20 19 18 17 16 15 15 14 12 12 11 9 7 6 6 7 8 9 11 13 14 16 18 20 22 24 27 30 32 33 36
Wind_Direction
319 320 322 322 322 321 321 320 319 318 316 314 311 309 306 304 302 298 294 291 286 282 279 274 270 266 263 259 255 252 249 246 244 241 241 239 237 235 233 232 232 231 230
322 323 324 324 323 323 322 321 320 318 317 315 313 310 307 305 302 299 296 292 287 283 279 275 270 266 262 259 255 252 249 246 243 240 240 239 237 235 233 231 230 229 229
325 325 325 325 324 324 323 322 321 319 318 316 314 311 308 305 303 301 297 294 289 284 280 276 271 267 262 258 255 252 249 245 243 240 239 238 236 234 232 231 230 228 228
326 326 326 326 325 324 324 323 322 320 319 317 315 312 309 307 304 302 299 295 291 286 281 277 272 267 263 259 255 252 249 245 242 240 238 237 235 234 232 230 229 228 228
326 326 326 326 325 325 324 323 322 320 319 318 316 313 311 308 306 303 300 296 293 288 283 278 273 269 264 259 255 252 248 245 242 240 238 236 235 233 232 230 228 228 226
326 326 326 326 326 325 325 324 323 321 320 318 316 314 312 309 307 304 301 298 295 290 285 280 275 270 265 260 256 252 248 245 242 240 237 235 234 233 230 229 228 227 225
325 325 326 326 326 326 325 324 323 322 321 319 317 315 313 311 309 306 303 300 296 291 287 282 277 272 267 262 257 253 249 245 242 239 237 234 233 232 229 227 226 226 224
325 325 326 327 327 327 327 326 324 323 321 320 318 316 314 313 311 308 305 302 297 293 289 285 280 274 269 264 259 254 249 245 242 239 236 234 231 230 228 227 225 226 224
323 325 326 327 328 328 327 327 325 324 322 321 319 317 316 314 313 311 307 304 300 296 292 289 283 276 271 265 259 254 249 245 241 238 235 232 230 229 228 226 225 224 223
322 325 326 327 328 328 328 327 326 325 324 321 320 319 317 316 314 312 310 307 303 300 296 292 287 279 273 267 260 254 248 244 241 237 234 231 229 228 227 226 224 223 223
322 324 326 327 327 328 328 327 327 326 325 323 321 321 320 318 316 315 312 310 306 303 300 296 291 284 278 269 261 252 247 242 239 236 233 230 228 227 226 225 224 222 222
321 323 324 325 326 327 328 327 327 327 325 324 323 322 322 320 318 317 314 312 308 306 302 299 295 289 282 272 262 252 246 241 237 234 231 228 227 226 225 223 223 222 220
321 323 324 325 325 327 328 328 328 327 326 325 325 324 324 322 320 318 315 313 311 307 304 302 299 293 287 276 265 256 247 240 234 230 228 225 224 223 223 222 222 221 219
320 321 322 323 324 325 327 327 327 327 326 325 325 325 325 324 323 320 316 314 312 311 308 306 303 297 291 280 270 259 247 237 231 227 225 223 221 221 220 220 220 219 219
317 319 321 322 323 324 325 326 326 326 325 325 325 326 326 325 324 322 319 315 312 311 310 309 306 302 297 287 273 258 245 235 228 223 221 220 219 218 218 218 218 218 217
314 317 318 320 321 322 324 325 325 324 324 324 324 325 326 326 324 323 322 318 313 312 311 310 310 309 303 292 276 260 243 231 224 221 219 216 216 215 216 216 216 217 216
311 314 316 317 318 321 323 323 323 322 323 323 324 325 326 326 325 324 324 321 315 313 312 312 312 311 307 297 279 259 242 228 220 217 216 215 213 212 213 214 215 215 216
309 311 313 314 316 319 321 321 321 321 322 323 323 325 326 327 327 326 325 323 319 316 314 313 314 312 307 299 284 260 239 225 217 214 213 212 212 211 211 212 213 213 214
306 309 310 312 314 316 318 319 319 319 320 321 322 324 326 327 328 328 327 324 320 317 316 314 314 311 307 299 285 260 233 219 212 209 209 209 208 208 208 209 211 212 213
304 306 308 310 311 313 315 316 316 316 317 319 321 323 325 327 327 328 327 325 321 317 315 314 312 309 305 297 282 255 227 213 207 206 207 206 205 205 207 208 210 211 210
302 304 305 307 308 310 311 312 312 313 313 316 319 321 324 326 326 327 329 326 324 319 314 312 310 304 297 289 273 248 225 213 207 204 203 203 203 204 205 207 209 209 208
301 302 302 303 304 306 307 308 308 309 310 312 316 319 322 325 325 327 328 328 325 321 315 310 309 304 291 278 263 238 220 212 206 202 201 202 204 204 205 206 207 208 208
298 298 299 299 300 301 302 303 304 304 306 308 311 316 319 321 322 324 327 326 325 324 316 307 302 297 285 272 251 230 218 214 209 203 201 202 202 204 205 205 205 206 207
294 294 295 295 296 296 296 297 298 299 301 305 308 311 316 319 321 323 327 327 327 326 321 308 295 288 273 259 242 229 220 214 208 204 203 202 202 202 201 202 202 203 205
291 290 290 291 291 291 291 291 293 295 298 301 304 308 313 317 320 323 326 328 327 328 326 316 298 284 272 256 246 236 225 216 210 208 205 202 202 202 201 202 203 203 204
286 286 285 285 285 284 283 284 286 290 293 296 302 304 308 314 318 323 325 328 328 329 329 323 307 287 271 259 246 237 226 216 209 206 205 203 201 201 202 202 202 203 204
Height
5818 5814 5810 5806 5802 5797 5793 5788 5783 5779 5774 5769 5764 5760 5755 5751 5747 5743 5739 5736 5733 5730 5728 5727 5726 5725 5726 5726 5728 5730 5732 5735 5738 5742 5744 5748 5753 5757 5762 5767 5771 5776 5781
5813 5809 5805 5800 5796 5791 5786 5781 5776 5771 5766 5761 5756 5751 5746 5741 5737 5732 5728 5725 5722 5719 5717 5715 5714 5714 5714 5714 5716 5717 5720 5723 5727 5731 5734 5738 5742 5747 5752 5757 5762 5767 5772
5808 5803 5799 5794 5790 5785 5779 5774 5769 5763 5758 5752 5747 5741 5736 5731 5726 5721 5717 5713 5710 5707 5705 5703 5702 5701 5702 5702 5703 5705 5708 5711 5715 5719 5723 5727 5732 5737 5742 5747 5752 5758 5763
5802 5798 5793 5788 5783 5778 5772 5767 5761 5755 5749 5743 5737 5732 5726 5720 5715 5710 5706 5702 5698 5695 5692 5690 5689 5688 5689 5689 5690 5693 5695 5698 5702 5706 5711 5716 5721 5726 5731 5737 5742 5748 5754
5796 5792 5787 5782 5776 5771 5765 5759 5753 5747 5740 5734 5728 5721 5715 5709 5704 5699 5694 5690 5686 5682 5679 5677 5676 5675 5675 5676 5677 5680 5682 5686 5689 5694 5699 5704 5709 5715 5721 5726 5732 5738 5744
5791 5786 5781 5775 5770 5764 5758 5751 5745 5738 5731 5724 5718 5711 5704 5698 5693 5688 5682 5678 5673 5670 5667 5664 5662 5662 5662 5662 5664 5665 5668 5672 5677 5681 5686 5692 5698 5704 5710 5716 5722 5728 5735
5785 5780 5774 5769 5763 5756 5750 5743 5736 5729 5722 5715 5707 5701 5694 5687 5682 5676 5671 5666 5661 5657 5654 5651 5649 5648 5648 5648 5649 5651 5654 5657 5662 5667 5673 5679 5685 5692 5699 5705 5711 5718 5724
5779 5773 5768 5762 5755 5749 5742 5735 5728 5720 5712 5705 5697 5690 5683 5677 5671 5665 5659 5654 5649 5645 5641 5638 5635 5634 5633 5633 5634 5636 5639 5643 5648 5653 5660 5666 5672 5679 5686 5693 5700 5707 5714
5772 5767 5761 5755 5748 5741 5734 5726 5719 5711 5703 5695 5688 5680 5673 5666 5660 5654 5648 5642 5637 5633 5629 5625 5622 5620 5619 5619 5620 5622 5624 5628 5632 5638 5645 5651 5658 5666 5674 5681 5689 5697 5703
5766 5760 5754 5747 5740 5733 5725 5718 5710 5702 5693 5685 5678 5670 5663 5656 5650 5643 5637 5631 5626 5622 5617 5613 5609 5607 5605 5604 5605 5607 5610 5613 5618 5624 5630 5638 5645 5653 5661 5670 5678 5686 5693
5758 5752 5746 5739 5732 5725 5717 5709 5701 5693 5684 5676 5668 5661 5654 5646 5640 5633 5627 5621 5616 5611 5607 5602 5598 5595 5593 5591 5592 5593 5596 5599 5604 5610 5617 5624 5632 5641 5649 5658 5667 5675 5683
5751 5744 5738 5731 5723 5716 5708 5700 5691 5683 5675 5667 5659 5652 5644 5637 5630 5624 5618 5612 5607 5602 5597 5593 5589 5585 5582 5580 5580 5581 5583 5586 5591 5597 5604 5612 5620 5629 5637 5647 5655 5664 5672
5742 5736 5729 5722 5714 5706 5698 5690 5682 5674 5666 5659 5651 5643 5636 5628 5622 5615 5610 5604 5599 5594 5589 5585 5580 5576 5573 5571 5570 5570 5572 5575 5580 5586 5593 5601 5609 5617 5626 5635 5644 5652 5661
5733 5727 5720 5712 5705 5697 5689 5681 5673 5665 5658 5650 5643 5635 5628 5620 5614 5607 5601 5596 5591 5586 5582 5577 5573 5568 5565 5562 5561 5561 5562 5565 5570 5576 5583 5590 5598 5607 5615 5624 5633 5642 5651
5723 5717 5710 5703 5696 5688 5680 5672 5664 5657 5650 5643 5635 5628 5621 5613 5607 5600 5594 5589 5584 5579 5575 5570 5566 5562 5558 5555 5553 5553 5554 5557 5561 5567 5573 5580 5588 5597 5606 5614 5623 5632 5641
5713 5707 5700 5693 5686 5678 5671 5663 5655 5649 5641 5634 5627 5621 5613 5606 5600 5594 5588 5582 5577 5573 5569 5564 5560 5556 5553 5549 5548 5547 5548 5550 5554 5559 5565 5572 5580 5588 5597 5605 5614 5623 5632
5702 5696 5689 5683 5676 5669 5662 5654 5648 5641 5634 5627 5620 5613 5607 5600 5593 5587 5582 5576 5571 5567 5563 5559 5555 5552 5548 5545 5543 5543 5543 5545 5549 5553 5559 5566 5573 5580 5589 5597 5606 5615 5624
5692 5686 5679 5673 5666 5659 5653 5646 5639 5633 5627 5620 5613 5607 5600 5593 5587 5581 5576 5570 5566 5562 5558 5555 5551 5548 5544 5542 5540 5539 5539 5541 5544 5549 5554 5560 5567 5574 5582 5590 5598 5607 5616
5680 5675 5668 5662 5656 5650 5644 5637 5631 5625 5619 5613 5607 5600 5594 5588 5582 5576 5571 5566 5561 5558 5554 5551 5547 5544 5541 5539 5537 5536 5537 5538 5541 5545 5550 5556 5562 5569 5576 5584 5592 5600 5609
5669 5664 5658 5651 5646 5640 5634 5629 5623 5618 5612 5607 5601 5595 5589 5583 5577 5572 5567 5562 5557 5554 5550 5547 5544 5541 5538 5536 5535 5534 5535 5537 5539 5543 5547 5552 5558 5564 5571 5578 5586 5594 5603
5656 5651 5646 5641 5635 5630 5625 5620 5615 5610 5605 5600 5595 5590 5584 5578 5573 5568 5563 5558 5554 5550 5547 5544 5541 5539 5537 5535 5534 5533 5534 5535 5538 5541 5545 5549 5555 5561 5567 5574 5581 5588 5596
5643 5638 5634 5629 5625 5620 5616 5611 5607 5603 5598 5594 5589 5585 5579 5574 5569 5564 5560 5555 5551 5547 5544 5541 5539 5537 5535 5534 5533 5532 5533 5534 5536 5539 5543 5547 5552 5557 5563 5569 5576 5583 5590
5629 5625 5621 5617 5614 5610 5606 5603 5599 5595 5591 5587 5583 5579 5575 5570 5565 5561 5556 5552 5548 5544 5541 5538 5536 5535 5533 5532 5531 5531 5532 5533 5534 5537 5540 5544 5548 5553 5559 5565 5571 5577 5584
5615 5612 5608 5605 5602 5599 5597 5594 5591 5588 5585 5581 5578 5574 5570 5566 5562 5557 5553 5549 5545 5542 5538 5536 5534 5532 5531 5530 5530 5530 5530 5531 5533 5535 5538 5541 5545 5550 5555 5560 5566 5572 5579
5600 5598 5595 5593 5591 5589 5587 5585 5583 5580 5578 5575 5572 5569 5565 5561 5558 5554 5550 5547 5543 5539 5536 5533 5531 5530 5529 5528 5528 5528 5529 5530 5531 5533 5536 5539 5542 5546 5551 5556 5562 5567 5574
5585 5584 5582 5581 5580 5579 5577 5576 5575 5573 5571 5569 5566 5563 5561 5557 5554 5551 5547 5544 5540 5537 5534 5531 5529 5528 5526 5526 5525 5526 5526 5528 5529 5531 5533 5536 5540 5543 5548 5552 5558 5563 5569